Overview Statistics Trail Chart Weather Telemetry Raw packets
 

This is the latest recevied weather packets stored in our database for station/object EGVP. If no packets are shown the sender has not sent any weather packets the latest 10 day(s).

<< 46 47 48 49 50 51 52 >>
Time Temp. Humidity Pressure Rain* Wind** Luminosity Snow
1787929402 20° C 77% 1007 hPa - - - -
1787928801 20° C 77% 1007 hPa - - - -
1787928201 20° C 77% 1007 hPa - - - -
1787927600 17.78° C 88% 1007 hPa - - - -
1787927002 17.78° C 88% 1007 hPa - - - -
1787926398 17.78° C 88% 1007 hPa - - - -
1787925800 17.78° C 88% 1007 hPa - - - -
1787925199 16.67° C 88% 1007 hPa - - - -
1787924602 16.67° C 88% 1007 hPa - - - -
1787924001 16.67° C 88% 1007 hPa - - - -
1787923401 17.78° C 77% 1007 hPa - - - -
1787922797 17.78° C 77% 1007 hPa - - - -
1787922202 17.78° C 77% 1007 hPa - - - -
1787921599 22.78° C 53% 1006 hPa - - - -
1787921002 22.78° C 53% 1006 hPa - - - -
1787920401 22.78° C 53% 1006 hPa - - - -
1787919802 22.78° C 49% 1006 hPa - - - -
1787919204 22.78° C 49% 1006 hPa - - - -
1787918601 22.78° C 49% 1006 hPa - - - -
1787918002 22.78° C 53% 1006 hPa - - - -
1787917402 22.78° C 53% 1006 hPa - - - -
1787916811 22.78° C 53% 1006 hPa - - - -
1787916199 20° C 60% 1005 hPa - - - -
1787915599 20° C 60% 1005 hPa - - - -
1787915005 21.67° C 53% 1006 hPa - - - -

* Rain since midnight (hover to see other rain measurements)
** Current wind speed in m/s (hover to see current wind gust speed)